Regional Weather Roundup
Issued by NWS

Home | Current Version | Previous Version | Graphics & Text | Print | Product List | Glossary On
Versions: 1 2 3 4 5 6 7 8 9 10 11 12 13 14 15 16 17 18 19 20 21 22 23 24 25 26 27 28 29 30 31 32 33 34 35 36 37 38 39 40 41 42 43 44 45 46 47 48 49 50
000
ASUS45 KCYS 050510
RWRWY

WYOMING REGIONAL WEATHER ROUNDUP
NATIONAL WEATHER SERVICE CHEYENNE WY
1100 PM MDT SAT JUL 04 2015

NOTE:  "FAIR" INDICATES FEW OR NO CLOUDS BELOW 12,000 FEET
WITH NO SIGNIFICANT WEATHER AND/OR OBSTRUCTIONS TO VISIBILITY.

WYZ001-050600-
YELLOWSTONE NATIONAL PARK

CITY           SKY/WX    TMP DP  RH WIND       PRES   REMARKS
LK YELLOWSTONE   N/A     59  41  51 CALM      30.18S
W YELLOWSTONE  NOT AVBL

$$
WYZ002>013-054>058-071-098>099-050600-
NORTHERN WYOMING

CITY           SKY/WX    TMP DP  RH WIND       PRES   REMARKS
JACKSON        FAIR      63  43  48 CALM      30.06S
CODY           FAIR      79  43  27 W5        29.91S
GREYBULL       FAIR      85  45  24 W5        29.77S
WORLAND        FAIR      76  52  43 CALM      29.79S
SHERIDAN       FAIR      67  58  72 S5        29.81F
BUFFALO        FAIR      72  53  51 S7        29.92S
GILLETTE       FAIR      73  48  41 S12       29.86S
HULETT         FAIR      72  50  46 S9        29.87S
NEWCASTLE      FAIR      75  52  43 E8        29.89F

$$
WYZ014>020-022>026-101>103-050600-
CENTRAL WYOMING

CITY           SKY/WX    TMP DP  RH WIND       PRES   REMARKS
BIG PINEY      FAIR      63  40  42 N12       30.12R
PINEDALE       FAIR      61  45  55 W3        30.13S
DUBOIS         FAIR      70  30  23 NW12      30.11S
LANDER         FAIR      76  43  30 W10       29.92S
RIVERTON       FAIR      78  45  30 N17       29.93R
CASPER         FAIR      74  48  39 S6        29.92F
DOUGLAS        FAIR      69  61  75 SE5       29.94S

$$
WYZ021-027>030-104>119-050600-
SOUTHERN WYOMING

CITY           SKY/WX    TMP DP  RH WIND       PRES   REMARKS
EVANSTON       FAIR      69  47  45 SW16      30.17R
KEMMERER       FAIR     N/A N/A N/A SW7       30.15S
FORT BRIDGER   CLEAR     68  50  52 SW14G29   30.17R
ROCK SPRINGS   FAIR      72  44  36 SW17      30.09R
DIXON          FAIR      65  47  52 CALM      30.13S
RAWLINS        FAIR      63  53  70 SE10      30.13R
SARATOGA       FAIR      64  48  55 SE9       30.15F
LARAMIE        MOCLDY    66  47  50 NW26G32   30.16R
CHEYENNE       FAIR      68  52  56 W8        30.04S
TORRINGTON     MOCLDY    71  58  63 E10       29.89S
PINE BLUFFS    FAIR      68  59  73 SE5       29.99R

$$


USA.gov is the U.S. government's official web portal to all federal, state and local government web resources and services.